[[{"header":{"parameterUnit":"m.s-1","parameterCategory":1,"la1":30.2991,"la2":30.254,"lo1":-89.0895,"lo2":-89.0444,"dy":0.0017,"dx":0.0017,"nx":28,"ny":28,"refTime":"2023-10-30T09:00:00:Z","depth":0,"parameterNumber":2,"parameterNumberName":"U-component_of_WINDS"},"data":[0,0,0,0,0,0,0,0,0,0,0,0,0,0,0,0,0,0,0,0,0,0,0,0,0,0,0,0,0,0,0,0,0,0,0,0,0,0,0,0,0,0,0,0,0,0,0,0,0,0,0,0,0,0,0,0,0,0,-1.1676,-1.1677,0,-1.1781,-1.1782,-1.1783,-1.1752,-1.1749,-1.1747,-1.1745,-1.1854,-1.1859,-1.1864,0,0,0,0,0,0,0,0,0,0,0,0,0,-1.1446,-1.1451,-1.1675,-1.1677,-1.1678,-1.1781,-1.1782,-1.1784,-1.1752,-1.1749,-1.1747,-1.1744,-1.1853,-1.1859,-1.1865,0,0,0,0,0,0,0,0,0,0,0,0,0,-1.1548,-1.1452,-1.1675,-1.1675,-1.1676,-1.1781,-1.1782,-1.1784,-1.1753,-1.1749,-1.1746,-1.1743,-1.1851,-1.1858,-1.1865,-1.1978,0,0,-1.1888,-1.1891,0,0,0,0,0,0,0,0,-1.1543,-1.1557,-1.1673,-1.1675,-1.1676,-1.175,-1.1742,-1.1849,-1.1753,-1.1723,-1.1745,-1.1741,-1.1822,-1.1832,-1.1859,-1.1983,-1.1988,-1.1889,-1.1893,-1.1897,-1.1899,0,0,0,0,0,0,0,-1.1536,-1.1552,-1.1717,-1.1675,-1.1677,-1.1669,-1.168,-1.1762,-1.179,-1.1726,-1.1724,-1.1737,-1.1822,-1.1852,-1.1861,-1.1989,-1.1889,-1.1895,-1.19,-1.1903,-1.221,-1.2213,0,0,0,0,0,0,-1.1527,-1.1546,-1.1714,-1.172,-1.16,-1.1676,-1.1688,-1.173,-1.1789,-1.1795,-1.1739,-1.1735,-1.1841,-1.1853,-1.1865,-1.2001,-1.1896,-1.1903,-1.1908,-1.2206,-1.2211,-1.2215,0,0,0,0,0,0,-1.1523,-1.1543,-1.171,-1.1633,-1.1654,-1.1683,-1.173,-1.1733,-1.1763,-1.1799,-1.1804,-1.1764,-1.1839,-1.1855,-1.195,-1.2005,-1.1907,-1.1914,-1.2202,-1.2208,-1.2213,-1.2274,0,0,0,0,0,0,-1.1516,-1.1541,-1.1585,-1.1634,-1.1658,-1.1793,-1.1734,-1.1738,-1.1776,-1.1771,-1.1824,-1.183,-1.1837,-1.1939,-1.1957,-1.2013,-1.1919,-1.2197,-1.2204,-1.2211,-1.2268,-1.2281,-1.2293,0,0,0,0,0,-1.1508,-1.1598,-1.1587,-1.1607,-1.1712,-1.1796,-1.181,-1.1816,-1.178,-1.1824,-1.1847,-1.1828,-1.1995,-1.1949,-1.1969,-1.2028,-1.2194,-1.2202,-1.221,-1.2262,-1.2279,-1.2293,0,0,0,0,0,0,-1.1555,-1.1605,-1.1593,-1.1701,-1.1745,-1.1791,-1.1847,-1.1834,-1.1889,-1.1882,-1.1887,-1.19,-1.1998,-1.2022,-1.197,-1.214,-1.2089,-1.2102,-1.2121,-1.2137,-1.215,-1.2143,-1.1926,0,0,0,0,0,-1.1578,-1.1642,-1.1681,-1.1773,-1.1795,-1.1817,-1.1854,-1.1855,-1.19,-1.1919,-1.1949,-1.1994,-1.2056,-1.2098,-1.2157,-1.2269,-1.2281,-1.232,-1.2332,-1.2343,-1.2355,-1.2416,-1.2434,-1.2242,-1.2242,-1.2242,0,0,-1.1626,-1.1661,-1.1701,-1.1783,-1.1817,-1.1883,-1.1833,-1.1905,-1.1955,-1.193,-1.2022,-1.2045,-1.2096,-1.22,-1.2248,-1.2224,-1.241,-1.2353,-1.2361,-1.2368,-1.2427,-1.2445,-1.2461,-1.2248,-1.2247,-1.2246,0,0,-1.1748,-1.178,-1.1861,-1.1895,-1.1947,-1.196,-1.1979,-1.2027,-1.2041,-1.2133,-1.2116,-1.2174,-1.2281,-1.2318,-1.2351,-1.2484,-1.2469,-1.2503,-1.2571,-1.2631,-1.2646,-1.266,-1.2709,-1.2726,-1.2514,-1.2514,-1.2515,0,-1.1802,-1.1901,-1.1904,-1.1978,-1.2015,-1.1993,-1.2075,-1.2108,-1.2176,-1.2202,-1.2173,-1.2307,-1.234,-1.2453,-1.2485,-1.2511,-1.2534,-1.2499,-1.2643,-1.2657,-1.267,-1.2717,-1.2735,-1.2518,-1.2518,-1.2518,-1.2517,0,-1.1966,-1.2034,-1.2093,-1.2159,-1.2202,-1.2279,-1.2293,-1.2336,-1.2332,-1.2349,-1.2443,-1.248,-1.2547,-1.2573,-1.257,-1.2685,-1.2669,-1.2642,-1.2591,-1.2692,-1.2736,-1.2754,-1.2524,-1.2523,-1.2521,-1.252,0,0,-1.2124,-1.2189,-1.221,-1.224,-1.2294,-1.2347,-1.2422,-1.2487,-1.2525,-1.2571,-1.2636,-1.2725,-1.27,-1.2737,-1.2738,-1.279,-1.2895,-1.2757,-1.2758,-1.2783,-1.3025,-1.3047,-1.3068,-1.2883,-1.2887,-1.2889,-1.3021,0,-1.2253,-1.2386,-1.239,-1.2512,-1.2576,-1.2555,-1.2621,-1.2661,-1.2677,-1.2733,-1.2751,-1.2816,-1.2777,-1.2799,-1.2849,-1.2871,-1.2944,-1.2861,-1.2944,-1.2947,-1.2936,-1.3091,-1.3115,-1.3238,-1.3039,-1.3041,-1.3044,0,-1.2422,-1.2473,-1.2602,-1.2646,-1.2673,-1.2732,-1.2791,-1.2845,-1.2889,-1.2897,-1.2938,-1.293,-1.3007,-1.2951,-1.3057,-1.3001,-1.3035,-1.305,-1.3055,-1.3066,-1.3004,-1.3108,-1.3277,-1.3297,-1.3071,-1.3068,-1.3066,0,-1.2527,-1.2628,-1.2718,-1.2744,-1.2797,-1.2839,-1.2863,-1.2904,-1.2942,-1.2993,-1.3018,-1.3077,-1.3111,-1.3156,-1.3165,-1.3123,-1.3272,-1.3216,-1.3281,-1.3282,-1.3317,-1.3315,-1.3497,-1.3334,-1.3333,-1.3333,-1.3333,0,-1.2672,-1.2752,-1.2767,-1.2823,-1.2911,-1.2913,-1.3001,-1.3021,-1.3057,-1.3117,-1.3101,-1.3157,-1.3163,-1.3221,-1.3227,-1.3315,-1.3329,-1.3339,-1.334,-1.3342,-1.3341,-1.3366,-1.3359,-1.3338,-1.3337,-1.3336,-1.3335,0,-1.2806,-1.2819,-1.2916,-1.2957,-1.297,-1.3033,-1.3069,-1.3122,-1.3135,-1.321,-1.3228,-1.325,-1.3316,-1.3328,-1.3407,-1.3411,-1.3516,-1.3507,-1.3502,-1.3502,-1.3567,-1.3561,-1.3773,-1.3802,-1.3618,-1.3619,-1.3621,0,-1.29,-1.2961,-1.3008,-1.3047,-1.3073,-1.3135,-1.3173,-1.3176,-1.3217,-1.3271,-1.3318,-1.3383,-1.3435,-1.3543,-1.3565,-1.3625,-1.3619,-1.3689,-1.3628,-1.3628,-1.3623,-1.362,-1.3627,-1.3702,-1.3704,-1.3706,-1.3707,0,-1.3065,-1.3068,-1.3124,-1.3182,-1.3229,-1.3275,-1.3318,-1.335,-1.3359,-1.3405,-1.3473,-1.3514,-1.3593,-1.3658,-1.3717,-1.3741,-1.3727,-1.3725,-1.3744,-1.3748,-1.3743,-1.3749,-1.3536,-1.3721,-1.372,-1.3719,-1.3718,-1.3718,-1.3183,-1.3237,-1.3278,-1.3341,-1.3374,-1.3414,-1.3467,-1.3486,-1.3542,-1.3607,-1.3605,-1.368,-1.3721,-1.3798,-1.3826,-1.3884,-1.3862,-1.3888,-1.3896,-1.3903,-1.391,-1.3731,-1.3895,-1.3894,-1.3894,-1.3893,-1.3893,0,-1.335,-1.3374,-1.3432,-1.3493,-1.3543,-1.3522,-1.3568,-1.3611,-1.3677,-1.3716,-1.3768,-1.3845,-1.3907,-1.3934,-1.3995,-1.4036,-1.4031,-1.4052,-1.4051,-1.4057,-1.3926,-1.3905,-1.4056,-1.4056,-1.4056,-1.4056,-1.4056,-1.4056,-1.3442,-1.3532,-1.3539,-1.3644,-1.3668,-1.3741,-1.377,-1.3807,-1.3838,-1.3925,-1.3977,-1.3993,-1.4027,-1.409,-1.4146,-1.4152,-1.4176,-1.4201,-1.4204,-1.4082,-1.4066,-1.405,-1.4031,-1.4206,-1.4206,-1.4331,-1.4332,-1.4333]},{"header":{"parameterUnit":"m.s-1","parameterCategory":1,"la1":30.2991,"la2":30.254,"lo1":-89.0895,"lo2":-89.0444,"dy":0.0017,"dx":0.0017,"nx":28,"ny":28,"refTime":"2023-10-30T09:00:00:Z","depth":0,"parameterNumber":3,"parameterNumberName":"V-component_of_WINDS"},"data":[0,0,0,0,0,0,0,0,0,0,0,0,0,0,0,0,0,0,0,0,0,0,0,0,0,0,0,0,0,0,0,0,0,0,0,0,0,0,0,0,0,0,0,0,0,0,0,0,0,0,0,0,0,0,0,0,0,0,-9.1956,-9.1958,0,-9.2181,-9.2184,-9.2186,-9.2079,-9.2074,-9.2068,-9.2062,-9.2285,-9.2296,-9.2307,0,0,0,0,0,0,0,0,0,0,0,0,0,-9.1424,-9.1434,-9.1956,-9.1958,-9.1961,-9.2181,-9.2184,-9.2187,-9.208,-9.2073,-9.2066,-9.206,-9.2282,-9.2295,-9.2309,0,0,0,0,0,0,0,0,0,0,0,0,0,-9.1653,-9.1438,-9.1955,-9.1935,-9.1935,-9.218,-9.2184,-9.2188,-9.2082,-9.2073,-9.2065,-9.2057,-9.2277,-9.2294,-9.231,-9.2586,0,0,-9.2362,-9.2369,0,0,0,0,0,0,0,0,-9.164,-9.1672,-9.1935,-9.1937,-9.1937,-9.2094,-9.2078,-9.2321,-9.2084,-9.2026,-9.2062,-9.2052,-9.2228,-9.2248,-9.2309,-9.2597,-9.2606,-9.2363,-9.2374,-9.2381,-9.2386,0,0,0,0,0,0,0,-9.1624,-9.1662,-9.2044,-9.1939,-9.194,-9.1911,-9.1934,-9.2124,-9.2172,-9.203,-9.2023,-9.2052,-9.2227,-9.2293,-9.2314,-9.261,-9.2363,-9.2378,-9.2388,-9.2395,-9.3133,-9.3142,0,0,0,0,0,0,-9.161,-9.1649,-9.2037,-9.2051,-9.1765,-9.1928,-9.1954,-9.2052,-9.217,-9.218,-9.2059,-9.2046,-9.2269,-9.2294,-9.2321,-9.2652,-9.2381,-9.2397,-9.2406,-9.3124,-9.3135,-9.3145,0,0,0,0,0,0,-9.1599,-9.1646,-9.2028,-9.1849,-9.1895,-9.1946,-9.2057,-9.2061,-9.2127,-9.2191,-9.2198,-9.2118,-9.2263,-9.2297,-9.2521,-9.2658,-9.2404,-9.242,-9.3112,-9.3127,-9.314,-9.3316,0,0,0,0,0,0,-9.1584,-9.1642,-9.175,-9.1852,-9.1905,-9.2228,-9.2066,-9.2072,-9.2158,-9.2143,-9.2249,-9.2258,-9.2259,-9.2497,-9.2538,-9.2677,-9.2433,-9.31,-9.3119,-9.3136,-9.3298,-9.3334,-9.3365,0,0,0,0,0,-9.1566,-9.1789,-9.1756,-9.1803,-9.2041,-9.2236,-9.2267,-9.2265,-9.2169,-9.2276,-9.2317,-9.2255,-9.2636,-9.2521,-9.2566,-9.2712,-9.3092,-9.3114,-9.3134,-9.3283,-9.3327,-9.3364,0,0,0,0,0,0,-9.1699,-9.1802,-9.1767,-9.203,-9.2126,-9.2218,-9.2353,-9.2312,-9.2434,-9.2415,-9.2405,-9.243,-9.2662,-9.2709,-9.2579,-9.2984,-9.2849,-9.288,-9.2946,-9.2989,-9.3021,-9.3006,-9.2447,0,0,0,0,0,-9.176,-9.1912,-9.1992,-9.2217,-9.2267,-9.2303,-9.2387,-9.2378,-9.2475,-9.2514,-9.2571,-9.2666,-9.2807,-9.29,-9.3033,-9.3303,-9.3324,-9.3426,-9.3459,-9.3487,-9.3514,-9.366,-9.3706,-9.3215,-9.3215,-9.3215,0,0,-9.1885,-9.196,-9.2057,-9.2246,-9.2319,-9.2475,-9.2337,-9.2508,-9.2622,-9.2539,-9.2756,-9.2801,-9.2905,-9.3154,-9.3266,-9.32,-9.3654,-9.3514,-9.3535,-9.3548,-9.3686,-9.3733,-9.3774,-9.323,-9.3227,-9.3225,0,0,-9.2195,-9.2267,-9.2462,-9.2539,-9.2652,-9.2674,-9.272,-9.282,-9.2847,-9.3064,-9.3005,-9.3139,-9.3383,-9.346,-9.3531,-9.3868,-9.3815,-9.3911,-9.4087,-9.4229,-9.4268,-9.4302,-9.4422,-9.4465,-9.3938,-9.3939,-9.3939,0,-9.2336,-9.2572,-9.2567,-9.2744,-9.2828,-9.2761,-9.2957,-9.303,-9.318,-9.3239,-9.3162,-9.3466,-9.3532,-9.3797,-9.388,-9.394,-9.3991,-9.39,-9.4263,-9.4297,-9.4329,-9.4443,-9.4489,-9.395,-9.3948,-9.3947,-9.3946,0,-9.274,-9.2904,-9.3047,-9.3197,-9.3296,-9.3481,-9.3502,-9.3603,-9.3585,-9.3614,-9.3834,-9.3911,-9.4058,-9.412,-9.4102,-9.4383,-9.4338,-9.4263,-9.4127,-9.4387,-9.4494,-9.4538,-9.3965,-9.3961,-9.3958,-9.3955,0,0,-9.3141,-9.3286,-9.3338,-9.3405,-9.3524,-9.365,-9.383,-9.3977,-9.4064,-9.4168,-9.4318,-9.4525,-9.4457,-9.4537,-9.4527,-9.4652,-9.4914,-9.4561,-9.4563,-9.4624,-9.5227,-9.5284,-9.5335,-9.4879,-9.4887,-9.4894,-9.5218,0,-9.3459,-9.378,-9.378,-9.4075,-9.4225,-9.4164,-9.432,-9.4409,-9.4441,-9.457,-9.4603,-9.4751,-9.4648,-9.4697,-9.4817,-9.4857,-9.5035,-9.4833,-9.5017,-9.5023,-9.4994,-9.5391,-9.5451,-9.5754,-9.526,-9.5267,-9.5272,0,-9.3874,-9.3995,-9.4306,-9.4403,-9.4466,-9.4608,-9.4742,-9.4867,-9.4965,-9.4979,-9.5069,-9.504,-9.522,-9.5078,-9.5326,-9.5189,-9.5264,-9.5294,-9.5306,-9.5323,-9.5164,-9.5419,-9.5851,-9.5896,-9.5338,-9.5333,-9.5328,0,-9.4136,-9.4376,-9.4593,-9.4652,-9.477,-9.4871,-9.4925,-9.5015,-9.5102,-9.5218,-9.5275,-9.5409,-9.5483,-9.5586,-9.5592,-9.5488,-9.5843,-9.5701,-9.5858,-9.5858,-9.5936,-9.5931,-9.6386,-9.5983,-9.5982,-9.5982,-9.5981,0,-9.4492,-9.4684,-9.4713,-9.4846,-9.5059,-9.5056,-9.5265,-9.5309,-9.539,-9.5528,-9.5481,-9.5612,-9.5612,-9.5744,-9.575,-9.5954,-9.5987,-9.6002,-9.6001,-9.6008,-9.6006,-9.6057,-9.6036,-9.5994,-9.5991,-9.5989,-9.5987,0,-9.4822,-9.4848,-9.5081,-9.5174,-9.5202,-9.5355,-9.5433,-9.5559,-9.5585,-9.5761,-9.5802,-9.5843,-9.5996,-9.6013,-9.619,-9.6193,-9.644,-9.6417,-9.6409,-9.6405,-9.6561,-9.6547,-9.7066,-9.7133,-9.6686,-9.669,-9.6693,0,-9.5048,-9.5195,-9.5304,-9.5396,-9.5455,-9.5602,-9.5692,-9.5693,-9.5789,-9.5911,-9.6022,-9.6171,-9.629,-9.6537,-9.6581,-9.6716,-9.6695,-9.6868,-9.6715,-9.6716,-9.6698,-9.669,-9.6704,-9.6898,-9.6902,-9.6906,-9.691,0,-9.5446,-9.5452,-9.5585,-9.5724,-9.5833,-9.5941,-9.6043,-9.6119,-9.6132,-9.6241,-9.6399,-9.6492,-9.6674,-9.6822,-9.6955,-9.7005,-9.6961,-9.6957,-9.7001,-9.7009,-9.6999,-9.7007,-9.649,-9.6946,-9.6942,-9.6939,-9.6937,-9.6936,-9.5731,-9.5859,-9.5957,-9.6106,-9.6183,-9.6278,-9.6402,-9.6444,-9.6576,-9.6727,-9.6718,-9.6892,-9.6984,-9.7158,-9.7219,-9.7353,-9.7295,-9.7358,-9.7374,-9.739,-9.7406,-9.6977,-9.7377,-9.7376,-9.7375,-9.7374,-9.7373,0,-9.6128,-9.6188,-9.6325,-9.647,-9.6587,-9.6536,-9.6645,-9.6745,-9.69,-9.6991,-9.711,-9.729,-9.7433,-9.7488,-9.7627,-9.7724,-9.7706,-9.776,-9.7754,-9.7766,-9.745,-9.7399,-9.7772,-9.7772,-9.7772,-9.7772,-9.7772,-9.7772,-9.6348,-9.6562,-9.6579,-9.6829,-9.6886,-9.7058,-9.7125,-9.7212,-9.7285,-9.7489,-9.7609,-9.7645,-9.7721,-9.7865,-9.7993,-9.8005,-9.8058,-9.8122,-9.8125,-9.7828,-9.7788,-9.775,-9.7702,-9.8133,-9.8134,-9.843,-9.8433,-9.8435]}]]